EHI
2 3 4 2 1 1 4 4 2 1 1 1 0 0 0 0 0 2 7 12 13 11 10 10 9 7 5 4 4 3 3 3 3 3 3 3 1 0 0 0 0 0 0
5 6 5 3 1 1 2 3 3 2 3 3 1 1 1 1 1 3 7 11 13 12 11 12 11 9 7 5 4 3 3 3 3 3 3 3 2 1 0 0 0 0 0
7 7 5 3 2 2 3 5 5 4 3 3 2 2 2 4 5 5 7 10 12 11 12 13 15 13 9 7 5 5 5 5 4 3 3 3 2 1 0 0 0 0 0
8 7 5 3 2 3 4 6 7 4 2 1 1 2 4 8 8 8 8 10 11 10 10 14 18 16 11 8 8 8 8 7 4 3 2 2 2 1 0 0 0 0 0
7 7 7 4 2 3 5 6 7 5 2 1 1 2 5 8 10 10 10 11 11 10 10 14 17 16 13 12 12 11 11 10 7 4 2 2 1 1 1 0 0 0 0
8 9 8 5 3 4 6 8 8 7 5 3 1 1 2 5 9 11 10 10 10 10 10 13 16 15 14 15 16 15 14 14 13 9 6 4 2 2 1 0 0 0 0
9 10 9 6 5 7 9 9 9 8 6 4 2 0 0 2 6 8 8 7 8 8 8 12 16 16 14 14 15 15 16 17 17 15 11 7 3 1 1 0 0 0 0
10 11 11 8 6 9 11 11 11 9 7 5 4 2 1 1 2 3 3 4 5 6 6 10 16 18 16 13 11 11 13 15 16 16 14 10 5 1 0 0 0 0 0
10 11 11 10 9 11 12 13 14 12 8 6 6 5 3 2 2 2 1 1 3 5 6 7 10 14 15 13 10 9 10 10 11 13 13 11 8 5 2 1 0 0 0
10 11 12 13 12 11 11 13 15 15 10 6 6 5 4 4 5 3 1 0 2 5 6 5 6 9 10 10 11 9 7 6 7 8 9 7 6 6 4 1 1 0 0
12 14 15 15 14 13 13 14 15 13 11 8 6 5 4 6 7 5 1 0 1 3 5 4 4 5 6 7 7 7 4 3 3 4 4 3 3 4 3 1 1 1 1
16 16 16 16 16 15 15 15 14 12 9 8 6 5 5 7 7 5 2 1 0 1 3 3 3 3 3 3 3 3 2 1 1 1 2 2 1 1 1 0 0 0 0
21 19 17 16 14 13 14 15 14 11 7 5 5 5 6 7 6 4 2 1 0 0 1 1 2 3 3 2 1 1 1 0 0 0 1 1 1 0 0 0 0 0 0
21 19 17 14 12 10 10 12 11 9 6 4 4 5 6 7 7 5 3 2 1 1 1 1 1 3 3 3 1 0 0 0 0 0 0 0 0 0 0 0 0 0 0
18 17 15 14 11 8 7 8 9 9 8 6 6 6 7 7 6 5 4 3 2 1 1 1 2 2 3 2 1 1 2 1 0 0 0 0 0 0 0 0 0 0 0
18 15 14 13 11 7 7 8 9 9 9 7 6 6 6 7 5 4 4 3 2 1 0 1 2 3 3 2 1 2 3 2 1 0 0 0 0 0 0 0 0 0 0
17 16 14 12 9 7 8 10 10 9 7 6 6 5 4 5 4 3 3 3 1 1 0 1 2 3 3 2 1 1 2 2 1 0 0 0 0 0 0 0 0 0 0
16 17 16 13 10 8 9 11 10 7 5 4 5 3 2 2 3 3 2 2 1 0 0 0 2 3 3 3 1 0 1 1 1 0 0 0 0 0 0 0 0 0 0
18 18 18 16 13 10 9 9 8 6 3 2 2 1 1 1 2 1 1 1 1 1 1 1 2 3 3 3 2 1 0 1 1 0 0 0 0 0 0 0 0 0 0
17 16 17 16 14 11 9 7 7 6 3 1 1 1 1 2 2 1 0 0 1 2 2 2 3 3 3 3 3 2 2 1 1 0 0 0 0 0 0 0 0 0 0
14 14 14 14 12 9 8 6 7 7 4 3 2 2 2 2 1 0 0 0 1 2 3 2 2 3 3 3 3 3 3 2 1 0 0 0 0 0 0 0 0 0 0
17 15 13 10 9 7 5 4 5 5 4 3 3 3 2 1 0 0 0 0 0 1 1 1 1 2 3 3 3 3 3 2 1 0 0 0 0 0 0 0 0 0 0
21 18 12 8 6 5 3 2 2 4 4 3 3 3 2 1 1 0 0 1 1 1 0 0 0 1 3 3 3 3 3 3 2 1 0 0 0 0 0 0 0 0 0
22 18 12 8 6 4 3 2 2 3 3 3 3 3 3 2 1 1 1 2 2 1 0 0 0 1 2 2 3 3 3 3 3 2 1 0 0 0 0 0 0 0 0
19 16 12 9 7 5 4 2 2 2 3 3 3 3 3 2 2 1 2 2 1 1 0 0 0 0 1 1 1 2 3 3 3 3 1 0 0 0 0 0 0 0 0
16 13 11 10 8 6 4 2 2 2 3 3 3 3 2 1 1 1 1 2 1 0 0 0 0 0 0 0 0 1 2 3 3 3 2 1 0 0 0 0 0 0 0
Wind_Speed
2 2 1 1 1 1 2 2 1 1 0 0 0 1 1 2 4 5 5 11 11 10 10 9 9 8 8 8 7 7 6 6 5 5 6 6 6 5 5 5 5 5 6
2 2 1 1 0 1 1 1 1 2 1 1 1 1 1 1 3 4 5 7 10 10 9 9 8 8 8 8 8 8 7 7 7 7 7 7 7 6 6 6 6 5 5
2 1 1 2 1 1 2 1 1 1 1 1 1 1 1 1 1 3 4 4 6 8 9 9 8 8 8 8 9 9 8 8 8 8 8 8 8 8 7 7 7 6 6
1 0 0 1 1 1 1 1 1 1 1 1 1 0 1 1 1 2 2 3 4 5 7 8 7 7 7 7 7 8 8 8 8 8 9 9 9 8 8 8 7 7 6
1 0 0 1 0 0 1 1 2 1 1 1 0 1 1 1 1 2 2 2 3 4 5 7 7 6 6 6 6 7 7 7 7 8 9 9 9 8 8 7 7 6 5
1 0 1 1 0 0 1 1 1 1 1 1 1 1 0 0 0 1 1 1 2 3 3 5 4 3 4 3 3 5 6 7 7 7 8 9 9 8 7 7 6 6 5
1 0 1 0 0 0 0 0 1 1 1 1 1 0 1 1 1 1 1 1 3 3 3 4 4 3 3 3 2 2 3 4 4 5 5 6 6 6 6 6 5 5 5
1 1 1 1 1 0 0 0 1 1 2 1 1 1 0 0 1 1 1 2 2 2 3 3 3 2 2 2 2 2 1 2 3 3 4 5 5 5 5 5 4 4 4
0 1 1 1 1 0 0 1 1 2 2 2 2 1 1 1 1 1 2 2 2 2 2 3 4 3 3 3 2 2 3 2 2 3 4 5 5 5 5 5 5 5 4
1 1 1 1 1 1 1 2 0 1 1 2 1 1 1 2 2 1 1 1 2 2 2 3 4 4 4 3 4 6 5 4 3 3 3 4 4 5 6 6 5 4 4
1 1 2 2 1 1 1 2 2 1 1 1 1 1 0 1 2 2 1 0 1 2 2 3 3 3 4 3 2 6 6 6 5 5 4 4 4 5 5 4 4 4 4
1 2 2 1 2 2 2 2 2 1 1 1 1 1 0 0 1 1 2 1 1 1 2 2 2 2 2 3 5 8 8 8 7 6 5 4 4 4 4 4 3 3 3
2 2 2 2 2 1 1 1 1 1 1 1 1 1 1 1 0 1 3 2 1 1 1 1 1 2 3 3 4 8 8 9 8 7 7 6 5 5 5 4 4 4 4
2 2 2 2 2 2 2 2 2 1 2 1 1 1 1 0 1 2 2 3 2 1 1 1 1 2 3 3 4 6 6 10 9 8 8 8 8 7 7 7 6 6 5
2 2 2 2 2 3 3 2 2 3 2 2 2 2 1 1 1 1 2 3 3 2 1 1 1 2 3 3 4 4 5 9 10 9 9 9 9 9 9 8 8 7 6
3 2 3 3 3 3 2 2 2 3 2 2 2 2 2 1 1 1 1 1 1 3 2 1 1 2 3 4 5 4 6 10 9 9 9 10 10 9 9 9 9 8 8
2 2 3 3 2 2 2 2 2 3 3 3 3 3 2 2 1 1 0 1 1 2 3 2 2 2 3 3 3 3 5 4 5 9 9 10 9 9 9 8 8 8 7
2 2 2 2 2 3 3 3 3 4 4 4 4 3 3 2 2 1 1 2 2 2 4 5 3 2 2 2 2 3 4 5 4 8 9 9 9 8 8 8 7 7 6
2 2 2 2 2 3 3 3 4 4 4 4 4 4 4 4 3 3 3 2 2 3 4 5 4 2 1 2 2 2 4 3 5 7 8 7 7 7 7 7 6 6 5
2 2 2 2 3 3 3 3 3 4 4 5 5 5 5 5 4 3 3 3 3 3 4 4 4 3 2 1 2 2 2 2 2 4 5 6 6 7 6 6 6 5 4
3 2 2 2 2 3 3 3 2 4 4 4 5 5 6 8 9 6 4 3 3 3 2 3 3 3 1 1 0 1 2 2 2 2 3 4 4 3 4 4 5 5 4
3 3 3 3 3 4 5 6 4 3 3 4 4 4 5 6 7 9 9 8 5 3 3 3 3 2 2 1 0 1 1 1 1 1 2 2 4 4 4 3 5 6 5
3 3 3 4 4 4 5 5 4 2 3 3 3 2 3 5 4 4 6 7 7 7 5 3 3 2 2 1 1 1 1 1 1 1 1 2 2 3 3 5 9 8 7
3 3 3 3 3 3 3 3 3 2 3 3 3 4 4 3 4 2 3 4 4 4 3 2 3 2 2 1 0 0 1 2 1 1 1 0 1 1 3 4 9 10 8
4 3 3 3 3 3 3 3 3 1 2 3 3 3 3 3 5 4 2 3 3 2 3 5 4 3 3 3 2 1 1 0 1 1 0 0 0 0 1 2 5 10 9
3 3 4 3 3 3 2 2 3 1 2 3 3 4 5 4 4 4 1 1 1 0 1 2 2 2 2 2 2 0 0 1 1 0 0 0 0 0 0 1 2 4 5
Wind_Direction
101 105 108 120 155 128 150 168 174 132 136 109 143 140 102 107 116 125 135 151 153 158 164 171 177 180 183 188 191 191 191 195 197 200 201 205 206 203 200 202 203 205 207
105 124 135 122 135 139 128 132 142 144 145 115 75 68 58 87 111 132 143 156 161 166 172 177 183 190 193 196 197 198 202 204 207 211 210 210 212 212 213 214 214 214 211
115 130 157 190 178 157 136 151 162 141 164 155 131 131 132 136 136 141 152 159 167 175 179 182 187 191 195 201 203 203 206 209 209 209 210 212 214 216 217 219 219 216 212
112 275 208 155 129 162 165 158 178 139 94 91 107 165 124 133 135 142 161 165 167 171 181 185 186 191 200 205 205 205 209 212 212 210 212 213 215 217 216 219 219 217 211
136 260 52 95 255 226 182 192 116 120 120 98 192 195 170 174 176 177 165 163 154 150 158 174 179 179 190 201 205 208 210 214 215 216 217 216 214 211 210 212 212 211 210
188 253 182 194 228 60 44 55 93 102 137 172 261 7 285 206 170 149 160 147 134 135 141 146 161 176 179 183 199 215 217 217 215 219 219 216 213 210 203 202 206 209 212
310 261 335 360 207 174 205 91 115 166 198 171 151 332 356 340 100 133 138 114 102 105 101 113 136 148 155 162 158 161 185 195 192 198 199 201 201 194 188 192 199 200 195
273 256 205 280 353 11 28 253 208 216 232 215 185 174 182 5 28 40 87 109 106 98 97 99 101 105 112 131 109 134 141 171 184 187 183 173 170 170 170 175 177 180 183
7 341 333 338 351 299 260 260 223 238 242 248 227 209 203 161 70 16 44 72 88 87 88 96 91 79 76 71 88 95 106 105 127 155 166 172 166 159 158 161 164 168 165
56 2 359 34 13 351 354 302 46 278 265 270 263 245 221 147 152 140 30 44 66 73 75 74 81 82 81 71 63 68 74 79 87 108 128 142 144 144 152 165 175 167 162
66 44 57 39 20 9 22 348 332 312 291 293 304 291 283 194 183 166 176 147 49 59 88 88 78 73 76 83 77 73 74 78 81 82 88 107 123 131 138 149 161 160 153
85 50 76 39 37 24 13 355 328 324 327 324 294 289 249 214 188 143 159 162 107 55 72 83 96 98 90 82 78 77 78 78 79 81 87 94 106 120 127 135 140 145 150
103 65 55 38 43 36 10 358 344 5 359 335 309 326 321 278 161 137 146 153 147 140 107 74 91 107 102 92 84 82 79 79 77 79 83 88 92 94 95 95 98 97 91
77 86 74 62 44 21 15 15 9 21 38 4 5 14 319 1 104 127 143 146 153 166 110 93 69 84 98 101 98 92 82 82 79 78 80 80 81 84 86 86 85 84 79
82 65 62 68 63 47 29 26 42 27 20 14 17 26 10 36 106 136 138 160 165 169 149 148 112 89 97 100 114 102 96 87 85 83 82 78 78 81 82 80 79 76 73
60 65 59 58 57 53 40 30 49 42 34 35 40 45 35 29 45 89 117 165 159 151 143 142 124 123 112 118 124 118 112 107 96 95 91 87 85 85 83 82 80 78 74
74 61 58 54 54 53 46 46 54 48 45 37 32 50 43 45 46 59 65 97 106 121 130 121 98 107 96 108 126 126 126 117 107 105 103 100 95 91 89 86 82 79 77
92 83 71 65 67 67 55 49 44 48 47 41 37 40 37 44 52 52 65 81 95 111 127 127 121 119 119 129 142 140 133 133 127 123 119 113 108 104 97 92 86 81 77
111 98 87 77 63 65 64 56 57 51 48 45 41 41 38 40 39 41 57 65 88 106 117 129 129 123 124 134 130 125 119 129 139 139 135 131 127 121 115 107 98 89 82
115 100 89 82 76 71 62 54 72 68 60 56 53 53 49 45 37 41 60 56 78 96 110 119 122 124 108 131 129 142 134 149 138 144 143 146 147 138 130 123 118 111 102
124 104 102 95 95 85 59 44 68 90 78 73 70 72 73 70 60 52 67 59 70 83 107 116 118 111 96 110 161 195 144 153 136 135 154 162 160 156 155 153 147 140 130
112 110 105 91 79 73 57 48 46 75 85 82 82 90 102 84 78 72 70 68 64 79 84 99 105 118 118 127 205 172 133 144 162 178 172 177 164 168 170 166 166 162 161
130 117 102 96 90 75 62 53 45 65 90 86 80 74 83 82 75 83 83 78 67 64 72 90 102 114 130 139 201 207 177 156 154 195 184 179 167 161 164 163 170 176 182
138 130 117 111 108 88 60 47 31 93 89 90 80 74 79 64 41 45 98 95 88 63 66 83 86 82 87 72 299 205 236 162 148 87 72 174 177 169 150 154 179 185 193
142 140 132 127 115 100 63 40 15 134 116 97 85 69 76 69 33 36 102 110 107 116 95 92 99 107 99 78 53 24 359 23 161 131 82 250 228 218 153 155 179 192 201
152 150 141 137 135 124 93 45 357 202 145 128 116 99 73 68 50 34 79 109 125 150 129 139 140 170 172 165 153 153 321 317 330 59 122 226 242 219 244 181 174 184 206